Simultaneous Nadir Overpasses (SNOs) Predictions

Prediction of SNOs between AQUA and NPP Satellite Orbit:

Table of predicted SNOs for the next 14.0 days since TLE Epoch: 1/20/2017
Index Date (AQUA) Time (AQUA) Lat,Lon (AQUA) SZA (AQUA ) Date (NPP) Time (NPP) Lat,Lon (NPP) SZA (NPP ) Distance(km) Time Diff (sec)
1 01/21/2017 21:48:26 76.08, 92.18 116.94 01/21/2017 21:48:05 76.09, 92.26 116.94 2.27 21
2 01/21/2017 22:37:34 -76.99, -97.05 64.12 01/21/2017 22:38:30 -77.00, -96.98 64.19 2.11 56
3 01/24/2017 13:16:27 -73.24, 33.24 60.57 01/24/2017 13:15:13 -73.28, 32.99 60.46 9.58 74
4 01/24/2017 14:04:51 76.31,-151.21 116.10 01/24/2017 14:04:53 76.31,-151.17 116.09 1.05 2
5 01/24/2017 14:50:18 -81.13, 94.17 77.22 01/24/2017 14:51:31 -80.50, 92.62 77.53 75.61 73
6 01/27/2017 05:32:13 -75.46, 154.47 63.58 01/27/2017 05:31:21 -75.46, 154.47 63.53 0.09 52
7 01/27/2017 06:21:16 76.57, -34.44 115.17 01/27/2017 06:21:41 76.58, -34.42 115.14 0.45 25
8 01/29/2017 21:48:36 -75.83, -88.58 64.66 01/29/2017 21:48:07 -75.83, -88.59 64.63 0.17 29
9 01/29/2017 22:37:40 76.88, 82.51 114.14 01/29/2017 22:38:28 76.88, 82.53 114.09 0.48 48
10 02/01/2017 14:04:59 -76.19, 28.40 65.77 02/01/2017 14:04:53 -76.19, 28.41 65.77 0.26 6




NCC Satellite Simultaneous Nadir Overpasses (SNOs) Prediction Service
